Location: Penton Mewsey
(51.2167°N, 1.5167°W)
Time: 08:42:52
(UTC+00:00)

USA 234 - Pass Details

Date: 30 March 2020
Orbit: 1102 x 1106 km, 123.0° (Epoch: 14 May)

Event Time Altitude Azimuth Distance (km) Brightness Sun altitude
Rises 23:33:19 0° 78° (ENE) 3,922 6.2 -34.0°
Reaches altitude 10° 23:35:51 10° 74° (ENE) 2,964 5.5 -34.0°
Maximum altitude 23:42:10 54° 359° (N) 1,319 3.8 -34.2°
Drops below altitude 10° 23:48:30 10° 285° (WNW) 2,966 5.7 -34.3°
Sets 23:51:02 0° 281° (W) 3,925 6.3 -34.4°
